W5TTY Weather Reports


Display with metric or nautical units.
time (UTC)temp
F
wind
direction
speed
MPH
gust
MPH
rain 1hr
in
rain 24hr
in
rain mn
in
humidity
%
barometer
mb
20210612181827 85 190 6.0 10.0 0.00 0.00 0.00 87 1013.9
20210612181333 85 165 6.0 10.0 0.00 0.00 0.00 87 1013.9
20210612180820 85 232 6.0 10.0 0.00 0.00 0.00 87 1013.9
20210612180326 85 196 5.0 13.0 0.00 0.00 0.00 87 1013.9
20210612175813 85 241 2.0 11.0 0.00 0.00 0.00 87 1013.9
20210612175319 84 171 4.0 10.0 0.00 0.00 0.00 88 1013.9
20210612174824 84 207 4.0 10.0 0.00 0.00 0.00 88 1013.8
20210612174330 84 217 4.0 13.0 0.00 0.00 0.00 88 1013.8
20210612173815 83 179 6.0 13.0 0.00 0.00 0.00 88 1013.8
20210612173327 84 188 5.0 14.0 0.00 0.00 0.00 88 1013.7
20210612172813 83 127 3.0 10.0 0.00 0.00 0.00 88 1013.6
20210612172318 83 162 7.0 10.0 0.00 0.00 0.00 88 1013.6
20210612171824 83 178 4.0 6.0 0.00 0.00 0.00 88 1013.5
20210612171329 82 157 4.0 7.0 0.00 0.00 0.00 88 1013.7
20210612170812 82 154 3.0 7.0 0.00 0.00 0.00 88 1013.8
20210612170324 82 186 4.0 7.0 0.00 0.00 0.00 88 1013.6
20210612165824 82 180 4.0 10.0 0.00 0.00 0.00 88 1013.6
20210612165328 81 157 6.0 10.0 0.00 0.00 0.00 88 1013.3
20210612164813 81 156 3.0 8.0 0.00 0.00 0.00 88 1013.4
20210612164318 81 175 3.0 7.0 0.00 0.00 0.00 88 1013.8
20210612163824 81 182 3.0 10.0 0.00 0.00 0.00 88 1013.7
20210612163333 81 187 7.0 10.0 0.00 0.00 0.00 88 1013.8
20210612162818 81 153 2.0 9.0 0.00 0.00 0.00 88 1014.1
20210612162323 80 149 4.0 7.0 0.00 0.00 0.00 88 1014.0
20210612161831 80 123 2.0 8.0 0.00 0.00 0.00 88 1014.2
20210612161317 80 146 4.0 6.0 0.00 0.00 0.00 88 1014.1
20210612160822 80 15 0.0 2.0 0.00 0.00 0.00 88 1014.7
20210612160311 80 15 0.0 3.0 0.00 0.00 0.00 88 1014.7
20210612155820 80 15 1.0 3.0 0.00 0.00 0.00 88 1014.8
20210612155331 80 15 2.0 2.0 0.00 0.00 0.00 88 1014.8
20210612154817 80 15 0.0 4.0 0.00 0.00 0.00 88 1014.9
20210612154322 80 15 3.0 4.0 0.00 0.00 0.00 88 1015.0
20210612153828 80 60 1.0 2.0 0.00 0.00 0.00 88 1015.1
20210612153314 80 61 1.0 3.0 0.00 0.00 0.00 88 1014.9
20210612152820 80 43 1.0 5.0 0.00 0.00 0.00 88 1015.1
20210612152327 80 41 3.0 5.0 0.00 0.00 0.00 88 1015.3
20210612151834 80 30 3.0 4.0 0.00 0.00 0.00 89 1015.4
20210612151318 80 124 0.0 3.0 0.00 0.00 0.00 89 1015.2
20210612150823 80 124 1.0 3.0 0.00 0.00 0.00 88 1015.0
20210612150328 80 35 2.0 3.0 0.00 0.00 0.00 88 1015.1
20210612145814 80 33 2.0 4.0 0.00 0.00 0.00 89 1015.4
20210612145321 80 34 1.0 4.0 0.00 0.00 0.00 88 1015.5
20210612144836 80 294 1.0 2.0 0.00 0.00 0.00 88 1015.6
20210612144324 80 294 1.0 3.0 0.00 0.00 0.00 89 1015.5
20210612143811 80 294 1.0 4.0 0.00 0.00 0.00 89 1015.6
20210612143319 79 294 2.0 5.0 0.00 0.00 0.00 89 1015.5
20210612142826 79 312 3.0 7.0 0.00 0.00 0.00 88 1015.6
20210612142314 79 311 3.0 7.0 0.00 0.00 0.00 89 1015.5
20210612141822 79 242 2.0 5.0 0.00 0.00 0.00 89 1015.1
20210612141333 79 231 3.0 4.0 0.00 0.00 0.00 89 1015.2
20210612140822 79 232 2.0 6.0 0.00 0.00 0.00 88 1015.4
20210612140330 79 265 2.0 8.0 0.00 0.00 0.00 89 1015.6
20210612135816 79 280 4.0 11.0 0.00 0.00 0.00 88 1015.8
20210612135322 79 278 6.0 11.0 0.00 0.00 0.00 88 1015.6
20210612134827 79 267 3.0 12.0 0.00 0.00 0.00 88 1015.2
20210612134326 79 219 4.0 12.0 0.00 0.00 0.00 88 1015.0
20210612133823 79 252 5.0 9.0 0.00 0.00 0.00 88 1014.8
20210612133327 79 217 4.0 12.0 0.00 0.00 0.00 88 1014.6
20210612132811 79 209 6.0 10.0 0.00 0.00 0.00 88 1014.5
20210612132316 79 209 3.0 7.0 0.00 0.00 0.00 88 1014.4
20210612131828 78 229 4.0 9.0 0.00 0.00 0.00 88 1014.6
20210612131313 78 233 4.0 7.0 0.00 0.00 0.00 88 1014.5
20210612130814 78 219 4.0 7.0 0.00 0.00 0.00 88 1014.5
20210612130319 78 202 4.0 7.0 0.00 0.00 0.00 88 1014.4
20210612125828 77 215 2.0 4.0 0.00 0.00 0.00 87 1014.5
20210612125315 77 215 2.0 4.0 0.00 0.00 0.00 87 1014.5
20210612124820 77 192 1.0 4.0 0.00 0.00 0.00 87 1014.4
20210612124322 77 192 1.0 4.0 0.00 0.00 0.00 87 1014.0
20210612123827 77 173 2.0 3.0 0.00 0.00 0.00 87 1013.7
20210612123332 76 173 1.0 3.0 0.00 0.00 0.00 87 1013.3
20210612122815 76 174 1.0 3.0 0.00 0.00 0.00 87 1013.2
20210612122321 76 130 1.0 2.0 0.00 0.00 0.00 87 1013.2
20210612121827 76 129 1.0 3.0 0.00 0.00 0.00 87 1013.2
20210612121313 76 129 1.0 3.0 0.00 0.00 0.00 87 1013.1
20210612120821 76 129 2.0 2.0 0.00 0.00 0.00 87 1013.0
20210612120328 76 129 1.0 2.0 0.00 0.00 0.00 86 1013.0
20210612115812 76 129 1.0 2.0 0.00 0.00 0.00 86 1013.0
20210612115325 76 129 0.0 2.0 0.00 0.00 0.00 86 1013.0
20210612114811 76 129 1.0 3.0 0.00 0.00 0.00 86 1013.0
20210612114318 76 129 2.0 3.0 0.00 0.00 0.00 86 1012.9
20210612113825 76 129 1.0 2.0 0.00 0.00 0.00 86 1013.0
20210612113311 76 129 0.0 3.0 0.00 0.00 0.00 86 1013.1
20210612112819 76 129 1.0 3.0 0.00 0.00 0.00 86 1013.2
20210612112323 76 129 2.0 2.0 0.00 0.00 0.00 86 1013.1
20210612111829 76 130 1.0 4.0 0.00 0.00 0.00 85 1012.9
20210612111312 76 129 2.0 5.0 0.00 0.00 0.00 85 1012.6
20210612110825 76 130 3.0 5.0 0.00 0.00 0.00 85 1012.5
20210612110333 76 146 2.0 4.0 0.00 0.00 0.00 85 1012.4
20210612105822 76 126 2.0 4.0 0.00 0.00 0.00 85 1012.4
20210612105326 76 123 1.0 5.0 0.00 0.00 0.00 85 1012.4
20210612104811 76 132 2.0 6.0 0.00 0.00 0.00 85 1012.4
20210612104318 76 121 3.0 5.0 0.00 0.00 0.00 85 1012.3
20210612103827 76 109 2.0 4.0 0.00 0.00 0.00 85 1012.3
20210612103315 76 113 2.0 4.0 0.00 0.00 0.00 85 1012.3
20210612102823 76 111 1.0 4.0 0.00 0.00 0.00 85 1012.2
20210612102337 76 111 3.0 6.0 0.00 0.00 0.00 85 1012.0
20210612101825 76 106 3.0 6.0 0.00 0.00 0.00 84 1012.0
20210612101313 76 110 2.0 4.0 0.00 0.00 0.00 84 1012.1
20210612100819 76 128 2.0 4.0 0.00 0.00 0.00 84 1011.9
20210612100327 76 140 1.0 3.0 0.00 0.00 0.00 84 1011.9
20210612095814 76 140 1.0 3.0 0.00 0.00 0.00 84 1012.1
20210612095321 76 140 1.0 3.0 0.00 0.00 0.00 84 1011.9
20210612094830 76 132 2.0 6.0 0.00 0.00 0.00 84 1011.9
20210612094318 76 131 2.0 6.0 0.00 0.00 0.00 84 1011.8
20210612093827 76 189 3.0 6.0 0.00 0.00 0.00 84 1011.7
20210612093337 76 162 2.0 6.0 0.00 0.00 0.00 83 1011.7
20210612092825 76 167 2.0 5.0 0.00 0.00 0.00 83 1011.8
20210612092311 76 158 2.0 6.0 0.00 0.00 0.00 83 1011.9
20210612091819 76 152 3.0 6.0 0.00 0.00 0.00 83 1011.8
20210612091325 77 148 3.0 6.0 0.00 0.00 0.00 83 1011.8
20210612090813 77 148 3.0 5.0 0.00 0.00 0.00 83 1011.9
20210612090316 77 142 3.0 4.0 0.00 0.00 0.00 83 1012.0
20210612085826 77 150 2.0 5.0 0.00 0.00 0.00 83 1012.0
20210612085332 77 158 3.0 5.0 0.00 0.00 0.00 82 1011.9
20210612084820 77 161 3.0 5.0 0.00 0.00 0.00 82 1011.9
20210612084328 77 188 3.0 8.0 0.00 0.00 0.00 82 1011.9
20210612083814 77 198 3.0 8.0 0.00 0.00 0.00 82 1011.8
20210612083321 77 180 3.0 8.0 0.00 0.00 0.00 82 1011.7
20210612082827 77 159 4.0 8.0 0.00 0.00 0.00 82 1011.6
20210612082315 77 178 4.0 9.0 0.00 0.00 0.00 82 1011.7
20210612081829 77 183 4.0 9.0 0.00 0.00 0.00 82 1011.8
20210612081317 77 161 4.0 7.0 0.00 0.00 0.00 82 1011.8
20210612080823 78 173 4.0 7.0 0.00 0.00 0.00 81 1011.7
20210612080330 78 200 4.0 7.0 0.00 0.00 0.00 81 1011.7
20210612075816 78 188 5.0 10.0 0.00 0.00 0.00 81 1011.6
20210612075324 78 195 5.0 10.0 0.00 0.00 0.00 81 1011.6
20210612074812 78 192 6.0 10.0 0.00 0.00 0.00 81 1011.6
20210612074318 78 138 5.0 10.0 0.00 0.00 0.00 81 1011.7
20210612073830 78 188 4.0 11.0 0.00 0.00 0.00 81 1011.7
20210612073315 78 160 6.0 12.0 0.00 0.00 0.00 81 1011.7
20210612072821 78 196 5.0 10.0 0.00 0.00 0.00 80 1011.6
20210612072325 78 202 4.0 12.0 0.00 0.00 0.00 80 1011.6
20210612071812 78 187 5.0 13.0 0.00 0.00 0.00 80 1011.7
20210612071319 78 165 6.0 14.0 0.00 0.00 0.00 80 1011.7
20210612070828 78 157 7.0 14.0 0.00 0.00 0.00 80 1011.7
20210612070315 78 196 6.0 11.0 0.00 0.00 0.00 80 1011.7
20210612065829 78 244 6.0 11.0 0.00 0.00 0.00 80 1011.8
20210612065316 78 204 5.0 14.0 0.00 0.00 0.00 80 1011.8
20210612064823 78 205 7.0 15.0 0.00 0.00 0.00 80 1011.7
20210612064311 78 148 6.0 11.0 0.00 0.00 0.00 79 1011.8
20210612063817 78 183 5.0 12.0 0.00 0.00 0.00 79 1011.9
20210612063328 78 173 6.0 12.0 0.00 0.00 0.00 79 1011.7
20210612062814 78 198 6.0 12.0 0.00 0.00 0.00 79 1011.8
20210612062320 79 144 6.0 12.0 0.00 0.00 0.00 79 1011.8
20210612061824 79 160 4.0 12.0 0.00 0.00 0.00 79 1011.8
20210612061311 79 170 5.0 11.0 0.00 0.00 0.00 79 1011.8
20210612060816 79 182 4.0 11.0 0.00 0.00 0.00 79 1011.8
20210612060321 79 183 5.0 9.0 0.00 0.00 0.00 78 1011.8
20210612055835 79 178 5.0 9.0 0.00 0.00 0.00 78 1011.7
20210612055322 79 167 6.0 10.0 0.00 0.00 0.00 78 1011.7
20210612054830 79 177 6.0 10.0 0.00 0.00 0.00 78 1011.7
20210612054315 79 167 6.0 9.0 0.00 0.00 0.00 78 1011.6
20210612053817 80 172 5.0 9.0 0.00 0.00 0.00 78 1011.7
20210612053325 80 214 4.0 12.0 0.00 0.00 0.00 78 1011.7
20210612052814 80 139 6.0 11.0 0.00 0.00 0.00 78 1011.7
20210612052319 80 159 5.0 11.0 0.00 0.00 0.00 78 1011.8
20210612051830 80 167 5.0 11.0 0.00 0.00 0.00 78 1011.8
20210612051317 80 163 6.0 9.0 0.00 0.00 0.00 77 1011.8
20210612050825 80 142 5.0 8.0 0.00 0.00 0.00 77 1011.8
20210612050311 80 147 6.0 9.0 0.00 0.00 0.00 77 1011.7
20210612045816 80 177 6.0 10.0 0.00 0.00 0.00 77 1011.8
20210612045324 80 155 5.0 9.0 0.00 0.00 0.00 77 1011.6
20210612044836 80 164 6.0 9.0 0.00 0.00 0.00 77 1011.5
20210612044325 80 198 6.0 8.0 0.00 0.00 0.00 77 1011.5
20210612043830 80 197 5.0 8.0 0.00 0.00 0.00 77 1011.5
20210612043317 80 153 4.0 10.0 0.00 0.00 0.00 76 1011.4
20210612042826 80 180 6.0 10.0 0.00 0.00 0.00 76 1011.4
20210612042315 80 159 5.0 10.0 0.00 0.00 0.00 76 1011.3
20210612041824 80 186 6.0 10.0 0.00 0.00 0.00 76 1011.2
20210612041328 80 168 6.0 10.0 0.00 0.00 0.00 76 1011.1
20210612040812 80 192 6.0 12.0 0.00 0.00 0.00 76 1011.1
20210612040327 80 165 6.0 12.0 0.00 0.00 0.00 75 1011.0
20210612035816 80 207 5.0 10.0 0.00 0.00 0.00 75 1010.9
20210612035321 80 167 5.0 10.0 0.00 0.00 0.00 75 1010.9
20210612034824 80 161 5.0 9.0 0.00 0.00 0.00 75 1010.9
20210612034330 80 167 5.0 9.0 0.00 0.00 0.00 75 1010.9
20210612033818 80 165 5.0 9.0 0.00 0.00 0.00 74 1010.9
20210612033327 80 148 6.0 9.0 0.00 0.00 0.00 74 1010.9
20210612032814 80 165 5.0 9.0 0.00 0.00 0.00 74 1010.9
20210612032319 80 159 4.0 9.0 0.00 0.00 0.00 74 1010.9
20210612031825 80 161 5.0 9.0 0.00 0.00 0.00 74 1010.8
20210612031312 80 170 5.0 10.0 0.00 0.00 0.00 74 1010.7
20210612030820 80 153 4.0 10.0 0.00 0.00 0.00 73 1010.6
20210612030330 80 159 4.0 10.0 0.00 0.00 0.00 73 1010.6
20210612025818 81 190 5.0 9.0 0.00 0.00 0.00 73 1010.6
20210612025326 81 157 5.0 9.0 0.00 0.00 0.00 73 1010.5
20210612024813 81 153 5.0 8.0 0.00 0.00 0.00 72 1010.5
20210612024320 81 159 5.0 8.0 0.00 0.00 0.00 72 1010.4
20210612023826 81 156 5.0 10.0 0.00 0.00 0.00 72 1010.4
20210612023313 81 159 6.0 10.0 0.00 0.00 0.00 72 1010.3
20210612022826 81 150 5.0 9.0 0.00 0.00 0.00 72 1010.2
20210612022313 82 161 4.0 9.0 0.00 0.00 0.00 71 1010.3
20210612021819 82 164 6.0 9.0 0.00 0.00 0.00 71 1010.1
20210612021323 82 150 5.0 8.0 0.00 0.00 0.00 71 1010.1
20210612020827 82 148 4.0 7.0 0.00 0.00 0.00 71 1010.1
20210612020316 83 153 4.0 7.0 0.00 0.00 0.00 71 1010.1
20210612015824 83 155 3.0 7.0 0.00 0.00 0.00 71 1010.0
20210612015329 83 153 4.0 7.0 0.00 0.00 0.00 70 1010.0
20210612014815 84 160 4.0 7.0 0.00 0.00 0.00 70 1010.0
20210612014331 84 175 3.0 7.0 0.00 0.00 0.00 70 1009.9
20210612013818 84 157 4.0 7.0 0.00 0.00 0.00 70 1009.8
20210612013323 84 147 3.0 8.0 0.00 0.00 0.00 70 1009.8
20210612012829 85 155 3.0 10.0 0.00 0.00 0.00 70 1009.7
20210612012316 85 193 4.0 10.0 0.00 0.00 0.00 70 1009.6
20210612011825 85 156 4.0 8.0 0.00 0.00 0.00 70 1009.6
20210612011336 85 123 3.0 10.0 0.00 0.00 0.00 70 1009.6
20210612010825 86 158 5.0 8.0 0.00 0.00 0.00 70 1009.6
20210612010313 86 121 4.0 8.0 0.00 0.00 0.00 70 1009.5
20210612005819 86 152 4.0 7.0 0.00 0.00 0.00 70 1009.5
20210612005325 86 154 4.0 9.0 0.00 0.00 0.00 70 1009.5
20210612004811 86 186 5.0 9.0 0.00 0.00 0.00 70 1009.5
20210612004318 87 148 4.0 11.0 0.00 0.00 0.00 70 1009.4
20210612003826 87 182 6.0 11.0 0.00 0.00 0.00 70 1009.4
20210612003313 87 152 5.0 10.0 0.00 0.00 0.00 70 1009.4
20210612002815 87 144 6.0 13.0 0.00 0.00 0.00 70 1009.4
20210612002330 88 169 6.0 13.0 0.00 0.00 0.00 70 1009.4
20210612001819 88 150 7.0 12.0 0.00 0.00 0.00 70 1009.4
20210612001327 88 171 5.0 12.0 0.00 0.00 0.00 70 1009.3
20210612000831 89 168 5.0 10.0 0.00 0.00 0.00 70 1009.4
20210612000319 89 191 5.0 10.0 0.00 0.00 0.00 70 1009.5
20210611235828 89 173 5.0 15.0 0.00 0.00 0.00 71 1009.4
20210611235314 89 161 7.0 15.0 0.00 0.00 0.00 71 1009.5
20210611234819 89 159 6.0 12.0 0.00 0.00 0.00 71 1009.4
20210611234325 89 215 8.0 14.0 0.00 0.00 0.00 71 1009.5
20210611233812 89 181 4.0 12.0 0.00 0.00 0.00 71 1009.5
20210611233319 89 161 6.0 13.0 0.00 0.00 0.00 71 1009.6
20210611232827 90 185 8.0 17.0 0.00 0.00 0.00 71 1009.5
20210611232314 90 180 4.0 13.0 0.00 0.00 0.00 72 1009.7
20210611231828 90 185 8.0 16.0 0.00 0.00 0.00 72 1009.7
20210611231315 90 154 7.0 13.0 0.00 0.00 0.00 72 1009.7
20210611230813 90 201 8.0 12.0 0.00 0.00 0.00 72 1009.8
20210611230321 90 155 5.0 11.0 0.00 0.00 0.00 72 1009.8
20210611225828 90 168 6.0 12.0 0.00 0.00 0.00 72 1009.8
20210611225311 90 194 7.0 12.0 0.00 0.00 0.00 73 1009.8
20210611224820 90 175 6.0 14.0 0.00 0.00 0.00 73 1009.9
20210611224329 90 192 5.0 16.0 0.00 0.00 0.00 73 1009.9
20210611223816 90 175 8.0 16.0 0.00 0.00 0.00 73 1009.9
20210611223323 90 187 6.0 17.0 0.00 0.00 0.00 73 1010.0
20210611222829 90 153 6.0 10.0 0.00 0.00 0.00 74 1009.9
20210611222314 89 159 5.0 16.0 0.00 0.00 0.00 74 1010.0
20210611221821 90 189 8.0 16.0 0.00 0.00 0.00 74 1010.1
20210611221332 90 150 8.0 13.0 0.00 0.00 0.00 74 1010.1
20210611220817 89 171 6.0 14.0 0.00 0.00 0.00 74 1010.1
20210611220322 89 123 6.0 12.0 0.00 0.00 0.00 74 1010.2
20210611215827 90 198 7.0 14.0 0.00 0.00 0.00 74 1010.3
20210611215312 90 172 5.0 12.0 0.00 0.00 0.00 75 1010.4
20210611214819 89 151 7.0 11.0 0.00 0.00 0.00 75 1010.5
20210611214331 89 207 7.0 11.0 0.00 0.00 0.00 75 1010.6
20210611213834 89 211 7.0 13.0 0.00 0.00 0.00 75 1010.7
20210611213320 89 209 8.0 13.0 0.00 0.00 0.00 75 1010.8
20210611212824 89 217 5.0 14.0 0.00 0.00 0.00 75 1010.7
20210611212329 89 205 8.0 14.0 0.00 0.00 0.00 76 1010.8
20210611211814 89 163 6.0 12.0 0.00 0.00 0.00 76 1010.8
20210611211317 89 154 6.0 13.0 0.00 0.00 0.00 76 1010.9
20210611210830 89 162 6.0 13.0 0.00 0.00 0.00 76 1010.9
20210611210319 88 180 7.0 13.0 0.00 0.00 0.00 77 1010.9
20210611205826 88 203 6.0 14.0 0.00 0.00 0.00 77 1011.0
20210611205312 88 194 7.0 14.0 0.00 0.00 0.00 77 1010.9
20210611204818 88 162 9.0 14.0 0.00 0.00 0.00 77 1010.9
20210611204326 88 135 5.0 14.0 0.00 0.00 0.00 77 1011.0
20210611203814 89 188 8.0 12.0 0.00 0.00 0.00 77 1011.0
20210611203323 89 159 9.0 12.0 0.00 0.00 0.00 78 1011.0
20210611202834 89 205 8.0 16.0 0.00 0.00 0.00 78 1011.1
20210611202320 88 188 8.0 17.0 0.00 0.00 0.00 79 1011.1
20210611201825 88 177 8.0 17.0 0.00 0.00 0.00 79 1011.1
20210611201330 88 216 6.0 15.0 0.00 0.00 0.00 79 1011.2
20210611200816 88 186 7.0 14.0 0.00 0.00 0.00 79 1011.1
20210611200324 88 121 5.0 10.0 0.00 0.00 0.00 79 1011.1
20210611195812 88 159 6.0 10.0 0.00 0.00 0.00 79 1011.3
20210611195320 88 205 6.0 14.0 0.00 0.00 0.00 79 1011.3
20210611194827 88 169 6.0 14.0 0.00 0.00 0.00 80 1011.3
20210611194337 88 178 6.0 13.0 0.00 0.00 0.00 80 1011.3
20210611193825 88 201 8.0 17.0 0.00 0.00 0.00 80 1011.4
20210611193329 88 190 9.0 17.0 0.00 0.00 0.00 80 1011.6
20210611192815 88 235 6.0 15.0 0.00 0.00 0.00 80 1011.6
20210611192320 88 229 8.0 15.0 0.00 0.00 0.00 80 1011.6
20210611191826 88 203 6.0 18.0 0.00 0.00 0.00 80 1011.7
20210611191311 88 202 10.0 20.0 0.00 0.00 0.00 81 1011.9
20210611190815 87 204 6.0 20.0 0.00 0.00 0.00 81 1011.9
20210611190331 88 180 8.0 20.0 0.00 0.00 0.00 81 1011.9
20210611185818 87 166 8.0 16.0 0.00 0.00 0.00 81 1012.1
20210611185327 87 173 8.0 12.0 0.00 0.00 0.00 81 1012.1
20210611184814 88 182 5.0 13.0 0.00 0.00 0.00 82 1012.1
20210611184317 87 138 7.0 13.0 0.00 0.00 0.00 82 1012.1
20210611183823 87 135 6.0 14.0 0.00 0.00 0.00 82 1012.1
20210611183331 87 173 7.0 14.0 0.00 0.00 0.00 82 1012.2
20210611182815 87 185 6.0 17.0 0.00 0.00 0.00 82 1012.3
20210611182320 86 159 10.0 17.0 0.00 0.00 0.00 83 1012.3